#timestamp,LO_Frequency,Hit,StdDev 
1684580415.7,286046995.4,P
1684580435.5,286046997.2,P
1684580455.3,286046997.7,N
1684580475.2,286046998.3,N
1684580495.0,286046999.0,N
1684580495.9,286046999.0,N
1684580515.8,286047001.1,N
1684580535.6,286047000.7,N
1684580555.4,286047000.7,N
1684580575.3,286047000.7,N
1684580595.1,286046998.1,N
1684580615.9,286046998.6,N
1684580635.7,286046998.7,N
1684580655.5,286046998.2,N
1684580675.4,286046998.1,N
1684580695.2,286046998.3,N
1684580715.0,286046999.4,N
1684580716.0,286046999.4,N
1684580735.8,286046996.9,N
1684580755.6,286046996.7,N
1684580775.5,286046997.3,N
1684580795.3,286046997.4,N
1684580815.1,286046996.5,N
1684580835.9,286046999.4,N
1684580855.7,286046997.4,N
1684580875.6,286046997.1,N
1684580895.4,286046996.6,N
1684580915.2,286047001.1,N
1684580935.1,286046999.4,N
1684580936.0,286046999.4,N
1684580955.8,286046998.9,N
1684580975.6,286046996.6,N
1684580995.5,286046999.5,N
1684581015.3,286046996.9,N
1684581035.2,286046999.2,N
1684581055.9,286046999.2,N
1684581075.7,286046999.1,N
1684581095.6,286046999.3,N
1684581115.4,286046998.6,N
1684581135.2,286046999.6,N
1684581155.1,286046999.1,N
1684581156.0,286046999.1,N
1684581175.8,286046997.1,N
1684581195.7,286046996.9,N
1684581215.5,286046997.8,N
1684581235.4,286046996.6,N
1684581255.2,286046996.5,N
1684581275.0,286046997.0,N
1684581275.9,286046997.0,N
1684581295.8,286046997.0,N
1684581315.6,286046996.8,N
1684581335.5,286046997.3,N
1684581355.3,286046997.2,N
1684581375.1,286046997.4,N
1684581395.9,286046995.6,Y
1684581415.7,286046999.1,P
1684581435.6,286047000.7,N
1684581455.4,286047000.6,N
1684581475.2,286047000.4,N
1684581495.1,286046999.9,N
1684581496.0,286046999.9,N
1684581515.8,286047000.3,N
1684581535.7,286046999.6,N
1684581555.5,286046994.9,Y
1684581575.4,286046996.5,P
1684581595.2,286046998.3,N
1684581615.0,286047000.4,N
1684581615.9,286047000.4,N
1684581635.8,286047000.2,N
1684581655.6,286047002.4,N
1684581675.5,286046999.7,N
1684581695.3,286047000.1,N
1684581715.1,286047002.4,N
1684581735.9,286046999.7,N
1684581755.7,286047000.2,N
1684581775.6,286046999.9,N
1684581795.4,286047002.5,N
1684581815.2,286047002.0,N
1684581835.1,286047002.2,N
1684581836.0,286047002.2,N
1684581855.8,286047001.6,N
1684581875.6,286047000.1,N
1684581895.5,286047002.3,N
1684581915.3,286047002.5,N
1684581935.1,286047002.3,N
1684581955.9,286047000.0,N
1684581975.7,286047000.0,N
1684581995.6,286047002.0,N
1684582015.4,286047002.7,N
1684582035.2,286047002.2,N
1684582055.1,286047002.3,N
1684582056.0,286047002.3,N
1684582075.8,286047000.9,N
1684582095.7,286046999.7,N
1684582115.5,286047002.4,N
1684582135.3,286047001.7,N
1684582155.2,286047004.4,Y
1684582175.0,286047000.4,P
1684582175.9,286047000.4,N
1684582195.7,286047000.9,N
1684582215.6,286047000.1,N
1684582235.4,286047000.3,N
1684582255.3,286047001.2,N
1684582275.1,286047001.2,N
1684582276.0,286047001.2,N
1684582295.8,286047000.6,N
1684582315.7,286047000.8,N
1684582335.5,286047000.5,N
1684582355.3,286046998.5,Y
1684582375.2,286046998.2,P
1684582395.0,286047000.9,N
1684582395.9,286047000.9,N
1684582415.8,286047001.2,N
1684582435.6,286047000.7,N
1684582455.4,286047000.9,N
1684582475.3,286047001.0,N
1684582495.1,286047000.8,N
1684582515.9,286047000.8,N
1684582535.7,286047001.1,N
1684582555.5,286047000.7,N
1684582575.4,286046998.5,N
1684582595.2,286046998.5,N
1684582615.0,286047000.6,N
1684582616.0,286047000.6,N
1684582635.8,286047000.2,N
1684582655.6,286046999.9,N
1684582675.5,286047000.0,N
1684582695.3,286047002.8,Y
1684582715.1,286046998.1,P
1684582735.9,286047001.2,N
1684582755.7,286047001.2,N
1684582775.6,286046998.7,N
1684582795.4,286047001.1,N
1684582815.2,286047001.1,N
1684582835.1,286046998.7,N
1684582836.0,286046998.7,N
1684582855.8,286046998.3,N
1684582875.7,286046998.3,N
1684582895.5,286046998.2,N
1684582915.3,286046998.2,N
1684582935.2,286046998.2,N
1684582955.0,286046998.1,N
1684582955.9,286046998.1,N
1684582975.8,286046998.2,N
1684582995.6,286047000.8,N
1684583015.4,286046999.9,N
1684583035.3,286047000.6,N
1684583055.1,286047001.1,N
1684583075.8,286047000.8,N
1684583095.7,286047000.8,N
1684583115.5,286046998.1,N
1684583135.4,286046998.6,N
1684583155.2,286046998.5,N
1684583175.1,286047001.1,N
1684583176.0,286047001.1,N
1684583195.8,286047000.7,N
1684583215.6,286047001.1,N
1684583235.5,286047000.0,N
1684583255.3,286047000.6,N
1684583275.1,286046998.1,N
1684583295.9,286046998.1,N
1684583315.7,286047000.7,N
1684583335.6,286046998.7,N
1684583355.4,286047000.4,N
1684583375.2,286046998.6,N
1684583395.1,286046998.7,N
1684583396.0,286046998.7,N
1684583415.8,286046998.9,N
1684583435.6,286046998.2,N
1684583455.5,286047001.0,N
1684583475.3,286047000.4,N
1684583495.2,286047000.2,N
1684583515.9,286047000.4,N
1684583535.7,286046998.6,N
1684583555.6,286047000.7,N
1684583575.4,286047001.0,N
1684583595.2,286046998.1,N
1684583615.1,286046998.5,N
1684583616.0,286046998.5,N
1684583635.8,286046998.4,N
1684583655.7,286046999.2,N
1684583675.5,286046999.1,N
1684583695.3,286046998.6,N
1684583715.2,286047001.2,N
1684583735.0,286047000.8,N
1684583735.9,286047000.8,N
1684583755.7,286047001.0,N
1684583775.6,286047000.7,N
1684583795.4,286046998.2,N
1684583815.3,286047001.1,N
1684583835.1,286047000.6,N
1684583836.0,286047000.6,N
1684583855.8,286047000.8,N
1684583875.7,286046998.5,N
1684583895.5,286047000.7,N
1684583915.3,286047000.7,N
1684583935.2,286047000.6,N
1684583955.0,286047000.8,N
1684583955.9,286047000.8,N
1684583975.8,286047002.7,N
1684583995.6,286046999.9,N
